#datetime,building,power
2024-01-13T00:00:00,axn,27.33
2024-01-13T00:01:00,axn,27.70
2024-01-13T00:02:00,axn,27.15
2024-01-13T00:03:00,axn,27.22
2024-01-13T00:04:00,axn,26.99
2024-01-13T00:05:00,axn,27.11
2024-01-13T00:06:00,axn,28.04
2024-01-13T00:07:00,axn,27.69
2024-01-13T00:08:00,axn,27.41
2024-01-13T00:09:00,axn,27.42
2024-01-13T00:10:00,axn,27.29
2024-01-13T00:11:00,axn,29.83
2024-01-13T00:12:00,axn,29.17
2024-01-13T00:13:00,axn,29.81
2024-01-13T00:14:00,axn,29.64
2024-01-13T00:15:00,axn,29.43
2024-01-13T00:16:00,axn,29.56
2024-01-13T00:17:00,axn,29.40
2024-01-13T00:18:00,axn,29.55
2024-01-13T00:19:00,axn,29.36
2024-01-13T00:20:00,axn,45.01
2024-01-13T00:21:00,axn,45.20
2024-01-13T00:22:00,axn,44.01
2024-01-13T00:23:00,axn,43.94
2024-01-13T00:24:00,axn,43.81
2024-01-13T00:25:00,axn,43.49
2024-01-13T00:26:00,axn,30.47
2024-01-13T00:27:00,axn,30.16
2024-01-13T00:28:00,axn,30.32
2024-01-13T00:29:00,axn,29.50
2024-01-13T00:30:00,axn,29.37
2024-01-13T00:31:00,axn,29.61
2024-01-13T00:32:00,axn,29.39
2024-01-13T00:33:00,axn,29.61
2024-01-13T00:34:00,axn,29.65
2024-01-13T00:35:00,axn,29.62
2024-01-13T00:36:00,axn,29.55
2024-01-13T00:37:00,axn,29.59
2024-01-13T00:38:00,axn,29.54
2024-01-13T00:39:00,axn,29.60
2024-01-13T00:40:00,axn,29.67
2024-01-13T00:41:00,axn,29.25
2024-01-13T00:42:00,axn,29.66
2024-01-13T00:43:00,axn,29.31
2024-01-13T00:44:00,axn,29.31
2024-01-13T00:45:00,axn,29.28
2024-01-13T00:46:00,axn,29.43
2024-01-13T00:47:00,axn,29.17
2024-01-13T00:48:00,axn,29.31
2024-01-13T00:49:00,axn,29.67
2024-01-13T00:50:00,axn,29.52
2024-01-13T00:51:00,axn,29.74
2024-01-13T00:52:00,axn,29.42
2024-01-13T00:53:00,axn,29.79
2024-01-13T00:54:00,axn,30.18
2024-01-13T00:55:00,axn,30.42
2024-01-13T00:56:00,axn,29.59
2024-01-13T00:57:00,axn,29.49
2024-01-13T00:58:00,axn,29.75
2024-01-13T00:59:00,axn,29.72
2024-01-13T01:00:00,axn,29.98
2024-01-13T01:01:00,axn,29.86
2024-01-13T01:02:00,axn,29.75
2024-01-13T01:03:00,axn,29.70
2024-01-13T01:04:00,axn,29.65
2024-01-13T01:05:00,axn,29.63
2024-01-13T01:06:00,axn,29.61
2024-01-13T01:07:00,axn,29.60
2024-01-13T01:08:00,axn,29.62
2024-01-13T01:09:00,axn,29.67
2024-01-13T01:10:00,axn,29.63
2024-01-13T01:11:00,axn,29.52
2024-01-13T01:12:00,axn,29.72
2024-01-13T01:13:00,axn,29.62
2024-01-13T01:14:00,axn,29.54
2024-01-13T01:15:00,axn,29.51
2024-01-13T01:16:00,axn,29.60
2024-01-13T01:17:00,axn,29.70
2024-01-13T01:18:00,axn,29.70
2024-01-13T01:19:00,axn,29.66
2024-01-13T01:20:00,axn,29.44
2024-01-13T01:21:00,axn,29.48
2024-01-13T01:22:00,axn,29.44
2024-01-13T01:23:00,axn,29.64
2024-01-13T01:24:00,axn,29.33
2024-01-13T01:25:00,axn,29.25
2024-01-13T01:26:00,axn,29.51
2024-01-13T01:27:00,axn,29.32
2024-01-13T01:28:00,axn,27.34
2024-01-13T01:29:00,axn,28.47
2024-01-13T01:30:00,axn,27.83
2024-01-13T01:31:00,axn,26.98
2024-01-13T01:32:00,axn,27.02
2024-01-13T01:33:00,axn,27.17
2024-01-13T01:34:00,axn,27.07
2024-01-13T01:35:00,axn,27.14
2024-01-13T01:36:00,axn,27.24
2024-01-13T01:37:00,axn,27.36
2024-01-13T01:38:00,axn,27.21
2024-01-13T01:39:00,axn,27.25
2024-01-13T01:40:00,axn,27.31
2024-01-13T01:41:00,axn,27.25
2024-01-13T01:42:00,axn,27.32
2024-01-13T01:43:00,axn,27.25
2024-01-13T01:44:00,axn,27.43
2024-01-13T01:45:00,axn,27.25
2024-01-13T01:46:00,axn,27.39
2024-01-13T01:47:00,axn,27.79
2024-01-13T01:48:00,axn,27.57
2024-01-13T01:49:00,axn,27.44
2024-01-13T01:50:00,axn,27.66
2024-01-13T01:51:00,axn,27.32
2024-01-13T01:52:00,axn,27.56
2024-01-13T01:53:00,axn,27.62
2024-01-13T01:54:00,axn,27.86
2024-01-13T01:55:00,axn,27.30
2024-01-13T01:56:00,axn,27.31
2024-01-13T01:57:00,axn,27.66
2024-01-13T01:58:00,axn,27.88
2024-01-13T01:59:00,axn,27.60
2024-01-13T02:00:00,axn,27.87
2024-01-13T02:01:00,axn,27.47
2024-01-13T02:02:00,axn,27.40
2024-01-13T02:03:00,axn,27.35
2024-01-13T02:04:00,axn,27.76
2024-01-13T02:05:00,axn,28.18
2024-01-13T02:06:00,axn,27.96
2024-01-13T02:07:00,axn,27.88
2024-01-13T02:08:00,axn,27.55
2024-01-13T02:09:00,axn,27.64
2024-01-13T02:10:00,axn,27.71
2024-01-13T02:11:00,axn,27.62
2024-01-13T02:12:00,axn,27.97
2024-01-13T02:13:00,axn,27.76
2024-01-13T02:14:00,axn,27.52
2024-01-13T02:15:00,axn,27.55
2024-01-13T02:16:00,axn,27.66
2024-01-13T02:17:00,axn,27.72
2024-01-13T02:18:00,axn,27.61
2024-01-13T02:19:00,axn,27.57
2024-01-13T02:20:00,axn,27.46
2024-01-13T02:21:00,axn,27.47
2024-01-13T02:22:00,axn,27.58
2024-01-13T02:23:00,axn,27.49
2024-01-13T02:24:00,axn,27.34
2024-01-13T02:25:00,axn,27.56
2024-01-13T02:26:00,axn,27.43
2024-01-13T02:27:00,axn,27.52
2024-01-13T02:28:00,axn,28.21
2024-01-13T02:29:00,axn,27.34
2024-01-13T02:30:00,axn,27.62
2024-01-13T02:31:00,axn,27.69
2024-01-13T02:32:00,axn,27.37
2024-01-13T02:33:00,axn,27.16
2024-01-13T02:34:00,axn,27.22
2024-01-13T02:35:00,axn,27.52
2024-01-13T02:36:00,axn,27.35
2024-01-13T02:37:00,axn,27.20
2024-01-13T02:38:00,axn,27.98
2024-01-13T02:39:00,axn,27.33
2024-01-13T02:40:00,axn,27.09
2024-01-13T02:41:00,axn,27.84
2024-01-13T02:42:00,axn,27.21
2024-01-13T02:43:00,axn,27.24
2024-01-13T02:44:00,axn,33.17
2024-01-13T02:45:00,axn,33.18
2024-01-13T02:46:00,axn,33.31
2024-01-13T02:47:00,axn,27.35
2024-01-13T02:48:00,axn,27.32
2024-01-13T02:49:00,axn,27.71
2024-01-13T02:50:00,axn,27.24
2024-01-13T02:51:00,axn,27.31
2024-01-13T02:52:00,axn,27.12
2024-01-13T02:53:00,axn,30.13
2024-01-13T02:54:00,axn,30.08
2024-01-13T02:55:00,axn,27.17
2024-01-13T02:56:00,axn,27.16
2024-01-13T02:57:00,axn,27.38
2024-01-13T02:58:00,axn,27.15
2024-01-13T02:59:00,axn,27.27
2024-01-13T03:00:00,axn,27.26
2024-01-13T03:01:00,axn,27.25
2024-01-13T03:02:00,axn,26.70
2024-01-13T03:03:00,axn,26.76
2024-01-13T03:04:00,axn,26.96
2024-01-13T03:05:00,axn,26.69
2024-01-13T03:06:00,axn,26.71
2024-01-13T03:07:00,axn,26.68
2024-01-13T03:08:00,axn,26.07
2024-01-13T03:09:00,axn,26.05
2024-01-13T03:10:00,axn,26.11
2024-01-13T03:11:00,axn,26.27
2024-01-13T03:12:00,axn,25.89
2024-01-13T03:13:00,axn,25.93
2024-01-13T03:14:00,axn,25.66
2024-01-13T03:15:00,axn,25.83
2024-01-13T03:16:00,axn,31.23
2024-01-13T03:17:00,axn,31.28
2024-01-13T03:18:00,axn,31.12
2024-01-13T03:19:00,axn,26.08
2024-01-13T03:20:00,axn,25.93
2024-01-13T03:21:00,axn,26.20
2024-01-13T03:22:00,axn,25.88
2024-01-13T03:23:00,axn,25.87
2024-01-13T03:24:00,axn,25.74
2024-01-13T03:25:00,axn,25.85
2024-01-13T03:26:00,axn,25.85
2024-01-13T03:27:00,axn,25.91
2024-01-13T03:28:00,axn,25.86
2024-01-13T03:29:00,axn,26.07
2024-01-13T03:30:00,axn,26.00
2024-01-13T03:31:00,axn,26.04
2024-01-13T03:32:00,axn,26.19
2024-01-13T03:33:00,axn,26.11
2024-01-13T03:34:00,axn,26.05
2024-01-13T03:35:00,axn,26.16
2024-01-13T03:36:00,axn,25.99
2024-01-13T03:37:00,axn,26.19
2024-01-13T03:38:00,axn,26.02
2024-01-13T03:39:00,axn,26.13
2024-01-13T03:40:00,axn,26.12
2024-01-13T03:41:00,axn,26.14
2024-01-13T03:42:00,axn,26.44
2024-01-13T03:43:00,axn,26.03
2024-01-13T03:44:00,axn,26.12
2024-01-13T03:45:00,axn,25.84
2024-01-13T03:46:00,axn,25.93
2024-01-13T03:47:00,axn,26.07
2024-01-13T03:48:00,axn,26.60
2024-01-13T03:49:00,axn,26.09
2024-01-13T03:50:00,axn,26.57
2024-01-13T03:51:00,axn,26.34
2024-01-13T03:52:00,axn,27.06
2024-01-13T03:53:00,axn,27.17
2024-01-13T03:54:00,axn,26.61
2024-01-13T03:55:00,axn,26.46
2024-01-13T03:56:00,axn,26.40
2024-01-13T03:57:00,axn,26.38
2024-01-13T03:58:00,axn,26.35
2024-01-13T03:59:00,axn,26.46
2024-01-13T04:00:00,axn,26.41
2024-01-13T04:01:00,axn,26.84
2024-01-13T04:02:00,axn,26.05
2024-01-13T04:03:00,axn,26.65
2024-01-13T04:04:00,axn,26.35
2024-01-13T04:05:00,axn,26.30
2024-01-13T04:06:00,axn,26.25
2024-01-13T04:07:00,axn,26.52
2024-01-13T04:08:00,axn,31.27
2024-01-13T04:09:00,axn,25.79
2024-01-13T04:10:00,axn,25.89
2024-01-13T04:11:00,axn,42.56
2024-01-13T04:12:00,axn,26.05
2024-01-13T04:13:00,axn,27.03
2024-01-13T04:14:00,axn,26.43
2024-01-13T04:15:00,axn,26.07
2024-01-13T04:16:00,axn,26.03
2024-01-13T04:17:00,axn,26.39
2024-01-13T04:18:00,axn,26.17
2024-01-13T04:19:00,axn,26.46
2024-01-13T04:20:00,axn,28.50
2024-01-13T04:21:00,axn,25.94
2024-01-13T04:22:00,axn,25.98
2024-01-13T04:23:00,axn,25.96
2024-01-13T04:24:00,axn,26.22
2024-01-13T04:25:00,axn,25.91
2024-01-13T04:26:00,axn,25.96
2024-01-13T04:27:00,axn,26.04
2024-01-13T04:28:00,axn,26.67
2024-01-13T04:29:00,axn,26.90
2024-01-13T04:30:00,axn,25.98
2024-01-13T04:31:00,axn,36.32
2024-01-13T04:32:00,axn,36.69
2024-01-13T04:33:00,axn,36.37
2024-01-13T04:34:00,axn,36.35
2024-01-13T04:35:00,axn,26.30
2024-01-13T04:36:00,axn,40.74
2024-01-13T04:37:00,axn,40.36
2024-01-13T04:38:00,axn,40.76
2024-01-13T04:39:00,axn,40.20
2024-01-13T04:40:00,axn,40.08
2024-01-13T04:41:00,axn,26.14
2024-01-13T04:42:00,axn,26.02
2024-01-13T04:43:00,axn,26.33
2024-01-13T04:44:00,axn,26.41
2024-01-13T04:45:00,axn,26.18
2024-01-13T04:46:00,axn,25.93
2024-01-13T04:47:00,axn,26.20
2024-01-13T04:48:00,axn,26.05
2024-01-13T04:49:00,axn,25.85
2024-01-13T04:50:00,axn,25.95
2024-01-13T04:51:00,axn,26.00
2024-01-13T04:52:00,axn,25.86
2024-01-13T04:53:00,axn,26.20
2024-01-13T04:54:00,axn,25.74
2024-01-13T04:55:00,axn,25.76
2024-01-13T04:56:00,axn,25.82
2024-01-13T04:57:00,axn,26.05
2024-01-13T04:58:00,axn,26.24
2024-01-13T04:59:00,axn,25.96
2024-01-13T05:00:00,axn,25.88
2024-01-13T05:01:00,axn,28.50
2024-01-13T05:02:00,axn,30.28
2024-01-13T05:03:00,axn,35.48
2024-01-13T05:04:00,axn,36.84
2024-01-13T05:05:00,axn,37.46
2024-01-13T05:06:00,axn,36.62
2024-01-13T05:07:00,axn,36.77
2024-01-13T05:08:00,axn,37.05
2024-01-13T05:09:00,axn,41.68
2024-01-13T05:10:00,axn,37.11
2024-01-13T05:11:00,axn,36.87
2024-01-13T05:12:00,axn,36.81
2024-01-13T05:13:00,axn,37.02
2024-01-13T05:14:00,axn,36.94
2024-01-13T05:15:00,axn,36.91
2024-01-13T05:16:00,axn,37.07
2024-01-13T05:17:00,axn,36.51
2024-01-13T05:18:00,axn,36.47
2024-01-13T05:19:00,axn,36.34
2024-01-13T05:20:00,axn,35.92
2024-01-13T05:21:00,axn,35.26
2024-01-13T05:22:00,axn,35.55
2024-01-13T05:23:00,axn,35.14
2024-01-13T05:24:00,axn,34.62
2024-01-13T05:25:00,axn,34.31
2024-01-13T05:26:00,axn,34.47
2024-01-13T05:27:00,axn,34.17
2024-01-13T05:28:00,axn,34.53
2024-01-13T05:29:00,axn,34.43
2024-01-13T05:30:00,axn,35.04
2024-01-13T05:31:00,axn,35.17
2024-01-13T05:32:00,axn,34.90
2024-01-13T05:33:00,axn,34.84
2024-01-13T05:34:00,axn,34.75
2024-01-13T05:35:00,axn,34.78
2024-01-13T05:36:00,axn,34.64
2024-01-13T05:37:00,axn,34.71
2024-01-13T05:38:00,axn,34.13
2024-01-13T05:39:00,axn,34.09
2024-01-13T05:40:00,axn,34.57
2024-01-13T05:41:00,axn,34.55
2024-01-13T05:42:00,axn,35.51
2024-01-13T05:43:00,axn,34.65
2024-01-13T05:44:00,axn,34.50
2024-01-13T05:45:00,axn,34.45
2024-01-13T05:46:00,axn,34.59
2024-01-13T05:47:00,axn,34.55
2024-01-13T05:48:00,axn,34.57
2024-01-13T05:49:00,axn,34.03
2024-01-13T05:50:00,axn,33.91
2024-01-13T05:51:00,axn,34.14
2024-01-13T05:52:00,axn,34.39
2024-01-13T05:53:00,axn,34.45
2024-01-13T05:54:00,axn,34.70
2024-01-13T05:55:00,axn,35.00
2024-01-13T05:56:00,axn,34.72
2024-01-13T05:57:00,axn,34.77
2024-01-13T05:58:00,axn,34.80
2024-01-13T05:59:00,axn,34.47
2024-01-13T06:00:00,axn,34.46
2024-01-13T06:01:00,axn,35.02
2024-01-13T06:02:00,axn,34.36
2024-01-13T06:03:00,axn,34.22
2024-01-13T06:04:00,axn,34.40
2024-01-13T06:05:00,axn,34.61
2024-01-13T06:06:00,axn,37.41
2024-01-13T06:07:00,axn,38.11
2024-01-13T06:08:00,axn,34.44
2024-01-13T06:09:00,axn,34.35
2024-01-13T06:10:00,axn,34.78
2024-01-13T06:11:00,axn,34.21
2024-01-13T06:12:00,axn,32.84
2024-01-13T06:13:00,axn,32.48
2024-01-13T06:14:00,axn,32.27
2024-01-13T06:15:00,axn,32.78
2024-01-13T06:16:00,axn,33.16
2024-01-13T06:17:00,axn,33.22
2024-01-13T06:18:00,axn,33.25
2024-01-13T06:19:00,axn,33.65
2024-01-13T06:20:00,axn,33.28
2024-01-13T06:21:00,axn,32.68
2024-01-13T06:22:00,axn,32.93
2024-01-13T06:23:00,axn,32.63
2024-01-13T06:24:00,axn,32.67
2024-01-13T06:25:00,axn,33.07
2024-01-13T06:26:00,axn,32.29
2024-01-13T06:27:00,axn,32.65
2024-01-13T06:28:00,axn,32.99
2024-01-13T06:29:00,axn,32.77
2024-01-13T06:30:00,axn,32.66
2024-01-13T06:31:00,axn,32.52
2024-01-13T06:32:00,axn,31.97
2024-01-13T06:33:00,axn,31.80
2024-01-13T06:34:00,axn,32.10
2024-01-13T06:35:00,axn,31.76
2024-01-13T06:36:00,axn,31.67
2024-01-13T06:37:00,axn,31.26
2024-01-13T06:38:00,axn,31.24
2024-01-13T06:39:00,axn,31.74
2024-01-13T06:40:00,axn,31.57
2024-01-13T06:41:00,axn,31.63
2024-01-13T06:42:00,axn,31.49
2024-01-13T06:43:00,axn,31.42
2024-01-13T06:44:00,axn,31.16
2024-01-13T06:45:00,axn,31.30
2024-01-13T06:46:00,axn,31.23
2024-01-13T06:47:00,axn,31.05
2024-01-13T06:48:00,axn,31.28
2024-01-13T06:49:00,axn,31.14
2024-01-13T06:50:00,axn,30.97
2024-01-13T06:51:00,axn,31.08
2024-01-13T06:52:00,axn,31.16
2024-01-13T06:53:00,axn,31.02
2024-01-13T06:54:00,axn,30.95
2024-01-13T06:55:00,axn,31.12
2024-01-13T06:56:00,axn,31.92
2024-01-13T06:57:00,axn,32.06
2024-01-13T06:58:00,axn,31.53
2024-01-13T06:59:00,axn,31.70
2024-01-13T07:00:00,axn,31.81
2024-01-13T07:01:00,axn,31.84
2024-01-13T07:02:00,axn,32.72
2024-01-13T07:03:00,axn,33.54
2024-01-13T07:04:00,axn,32.76
2024-01-13T07:05:00,axn,32.50
2024-01-13T07:06:00,axn,32.71
2024-01-13T07:07:00,axn,33.35
2024-01-13T07:08:00,axn,32.88
2024-01-13T07:09:00,axn,32.72
2024-01-13T07:10:00,axn,32.82
2024-01-13T07:11:00,axn,32.88
2024-01-13T07:12:00,axn,33.08
2024-01-13T07:13:00,axn,33.31
2024-01-13T07:14:00,axn,33.08
2024-01-13T07:15:00,axn,33.44
2024-01-13T07:16:00,axn,33.78
2024-01-13T07:17:00,axn,33.71
2024-01-13T07:18:00,axn,33.58
2024-01-13T07:19:00,axn,34.09
2024-01-13T07:20:00,axn,34.52
2024-01-13T07:21:00,axn,35.03
2024-01-13T07:22:00,axn,35.05
2024-01-13T07:23:00,axn,35.54
2024-01-13T07:24:00,axn,35.60
2024-01-13T07:25:00,axn,35.02
2024-01-13T07:26:00,axn,35.07
2024-01-13T07:27:00,axn,34.95
2024-01-13T07:28:00,axn,35.15
2024-01-13T07:29:00,axn,35.26
2024-01-13T07:30:00,axn,35.48
2024-01-13T07:31:00,axn,35.17
2024-01-13T07:32:00,axn,35.28
2024-01-13T07:33:00,axn,35.14
2024-01-13T07:34:00,axn,36.16
2024-01-13T07:35:00,axn,35.79
2024-01-13T07:36:00,axn,34.16
2024-01-13T07:37:00,axn,34.20
2024-01-13T07:38:00,axn,34.28
2024-01-13T07:39:00,axn,34.01
2024-01-13T07:40:00,axn,34.16
2024-01-13T07:41:00,axn,34.46
2024-01-13T07:42:00,axn,36.32
2024-01-13T07:43:00,axn,34.92
2024-01-13T07:44:00,axn,35.05
2024-01-13T07:45:00,axn,34.92
2024-01-13T07:46:00,axn,36.07
2024-01-13T07:47:00,axn,34.28
2024-01-13T07:48:00,axn,34.02
2024-01-13T07:49:00,axn,34.21
2024-01-13T07:50:00,axn,33.84
2024-01-13T07:51:00,axn,33.96
2024-01-13T07:52:00,axn,33.67
2024-01-13T07:53:00,axn,33.59
2024-01-13T07:54:00,axn,33.73
2024-01-13T07:55:00,axn,33.69
2024-01-13T07:56:00,axn,33.80
2024-01-13T07:57:00,axn,33.83
2024-01-13T07:58:00,axn,34.12
2024-01-13T07:59:00,axn,33.70
2024-01-13T08:00:00,axn,33.60
2024-01-13T08:01:00,axn,35.04
2024-01-13T08:02:00,axn,35.00
2024-01-13T08:03:00,axn,35.01
2024-01-13T08:04:00,axn,34.92
2024-01-13T08:05:00,axn,35.26
2024-01-13T08:06:00,axn,35.45
2024-01-13T08:07:00,axn,35.05
2024-01-13T08:08:00,axn,35.50
2024-01-13T08:09:00,axn,36.45
2024-01-13T08:10:00,axn,35.87
2024-01-13T08:11:00,axn,35.63
2024-01-13T08:12:00,axn,36.28
2024-01-13T08:13:00,axn,36.39
2024-01-13T08:14:00,axn,35.34
2024-01-13T08:15:00,axn,35.44
2024-01-13T08:16:00,axn,35.26
2024-01-13T08:17:00,axn,34.97
2024-01-13T08:18:00,axn,35.72
2024-01-13T08:19:00,axn,35.44
2024-01-13T08:20:00,axn,34.96
2024-01-13T08:21:00,axn,34.93
2024-01-13T08:22:00,axn,34.92
2024-01-13T08:23:00,axn,34.62
2024-01-13T08:24:00,axn,35.94
2024-01-13T08:25:00,axn,35.32
2024-01-13T08:26:00,axn,36.23
2024-01-13T08:27:00,axn,37.95
2024-01-13T08:28:00,axn,36.13
2024-01-13T08:29:00,axn,37.38
2024-01-13T08:30:00,axn,35.65
2024-01-13T08:31:00,axn,35.71
2024-01-13T08:32:00,axn,35.47
2024-01-13T08:33:00,axn,36.05
2024-01-13T08:34:00,axn,36.48
2024-01-13T08:35:00,axn,35.65
2024-01-13T08:36:00,axn,35.98
2024-01-13T08:37:00,axn,35.60
2024-01-13T08:38:00,axn,35.04
2024-01-13T08:39:00,axn,35.32
2024-01-13T08:40:00,axn,35.34
2024-01-13T08:41:00,axn,35.39
2024-01-13T08:42:00,axn,35.35
2024-01-13T08:43:00,axn,35.11
2024-01-13T08:44:00,axn,35.46
2024-01-13T08:45:00,axn,35.70
2024-01-13T08:46:00,axn,35.39
2024-01-13T08:47:00,axn,35.29
2024-01-13T08:48:00,axn,35.52
2024-01-13T08:49:00,axn,36.05
2024-01-13T08:50:00,axn,35.96
2024-01-13T08:51:00,axn,36.32
2024-01-13T08:52:00,axn,35.59
2024-01-13T08:53:00,axn,35.40
2024-01-13T08:54:00,axn,36.72
2024-01-13T08:55:00,axn,36.84
2024-01-13T08:56:00,axn,35.81
2024-01-13T08:57:00,axn,36.34
2024-01-13T08:58:00,axn,36.82
2024-01-13T08:59:00,axn,35.75
2024-01-13T09:00:00,axn,38.51
2024-01-13T09:01:00,axn,36.08
2024-01-13T09:02:00,axn,35.89
2024-01-13T09:03:00,axn,36.57
2024-01-13T09:04:00,axn,36.53
2024-01-13T09:05:00,axn,36.91
2024-01-13T09:06:00,axn,36.54
2024-01-13T09:07:00,axn,36.08
2024-01-13T09:08:00,axn,36.48
2024-01-13T09:09:00,axn,36.47
2024-01-13T09:10:00,axn,36.49
2024-01-13T09:11:00,axn,36.71
2024-01-13T09:12:00,axn,36.73
2024-01-13T09:13:00,axn,36.45
2024-01-13T09:14:00,axn,36.52
2024-01-13T09:15:00,axn,36.23
2024-01-13T09:16:00,axn,36.49
2024-01-13T09:17:00,axn,36.43
2024-01-13T09:18:00,axn,37.06
2024-01-13T09:19:00,axn,40.36
2024-01-13T09:20:00,axn,39.50
2024-01-13T09:21:00,axn,39.63
2024-01-13T09:22:00,axn,37.02
2024-01-13T09:23:00,axn,37.18
2024-01-13T09:24:00,axn,37.39
2024-01-13T09:25:00,axn,37.74
2024-01-13T09:26:00,axn,37.07
2024-01-13T09:27:00,axn,36.80
2024-01-13T09:28:00,axn,46.73
2024-01-13T09:29:00,axn,46.59
2024-01-13T09:30:00,axn,47.48
2024-01-13T09:31:00,axn,47.34
2024-01-13T09:32:00,axn,37.69
2024-01-13T09:33:00,axn,37.43
2024-01-13T09:34:00,axn,37.12
2024-01-13T09:35:00,axn,36.51
2024-01-13T09:36:00,axn,36.42
2024-01-13T09:37:00,axn,36.43
2024-01-13T09:38:00,axn,36.38
2024-01-13T09:39:00,axn,36.94
2024-01-13T09:40:00,axn,36.76
2024-01-13T09:41:00,axn,36.50
2024-01-13T09:42:00,axn,36.62
2024-01-13T09:43:00,axn,36.47
2024-01-13T09:44:00,axn,36.45
2024-01-13T09:45:00,axn,36.56
2024-01-13T09:46:00,axn,37.13
2024-01-13T09:47:00,axn,36.60
2024-01-13T09:48:00,axn,36.54
2024-01-13T09:49:00,axn,36.28
2024-01-13T09:50:00,axn,36.92
2024-01-13T09:51:00,axn,36.39
2024-01-13T09:52:00,axn,37.12
2024-01-13T09:53:00,axn,37.26
2024-01-13T09:54:00,axn,36.48
2024-01-13T09:55:00,axn,36.38
2024-01-13T09:56:00,axn,36.70
2024-01-13T09:57:00,axn,36.58
2024-01-13T09:58:00,axn,36.86
2024-01-13T09:59:00,axn,36.44
2024-01-13T10:00:00,axn,36.60
2024-01-13T10:01:00,axn,36.23
2024-01-13T10:02:00,axn,36.03
2024-01-13T10:03:00,axn,36.49
2024-01-13T10:04:00,axn,36.17
2024-01-13T10:05:00,axn,36.21
2024-01-13T10:06:00,axn,36.62
2024-01-13T10:07:00,axn,36.69
2024-01-13T10:08:00,axn,36.50
2024-01-13T10:09:00,axn,36.66
2024-01-13T10:10:00,axn,37.00
2024-01-13T10:11:00,axn,50.88
2024-01-13T10:12:00,axn,50.57
2024-01-13T10:13:00,axn,50.79
2024-01-13T10:14:00,axn,50.91
2024-01-13T10:15:00,axn,50.60
2024-01-13T10:16:00,axn,37.14
2024-01-13T10:17:00,axn,36.56
2024-01-13T10:18:00,axn,36.74
2024-01-13T10:19:00,axn,37.20
2024-01-13T10:20:00,axn,37.70
2024-01-13T10:21:00,axn,36.40
2024-01-13T10:22:00,axn,39.00
2024-01-13T10:23:00,axn,38.55
2024-01-13T10:24:00,axn,36.46
2024-01-13T10:25:00,axn,36.95
2024-01-13T10:26:00,axn,36.75
2024-01-13T10:27:00,axn,36.25
2024-01-13T10:28:00,axn,36.70
2024-01-13T10:29:00,axn,36.54
2024-01-13T10:30:00,axn,36.27
2024-01-13T10:31:00,axn,37.28
2024-01-13T10:32:00,axn,37.41
2024-01-13T10:33:00,axn,36.91
2024-01-13T10:34:00,axn,36.51
2024-01-13T10:35:00,axn,36.06
2024-01-13T10:36:00,axn,36.04
2024-01-13T10:37:00,axn,37.15
2024-01-13T10:38:00,axn,37.16
2024-01-13T10:39:00,axn,36.09
2024-01-13T10:40:00,axn,36.59
2024-01-13T10:41:00,axn,36.36
2024-01-13T10:42:00,axn,36.19
2024-01-13T10:43:00,axn,36.93
2024-01-13T10:44:00,axn,36.36
2024-01-13T10:45:00,axn,36.98
2024-01-13T10:46:00,axn,36.53
2024-01-13T10:47:00,axn,35.92
2024-01-13T10:48:00,axn,36.59
2024-01-13T10:49:00,axn,36.25
2024-01-13T10:50:00,axn,36.24
2024-01-13T10:51:00,axn,36.43
2024-01-13T10:52:00,axn,37.33
2024-01-13T10:53:00,axn,36.11
2024-01-13T10:54:00,axn,36.18
2024-01-13T10:55:00,axn,37.22
2024-01-13T10:56:00,axn,36.59
2024-01-13T10:57:00,axn,37.08
2024-01-13T10:58:00,axn,43.02
2024-01-13T10:59:00,axn,43.34
2024-01-13T11:00:00,axn,43.77
2024-01-13T11:01:00,axn,48.21
2024-01-13T11:02:00,axn,42.31
2024-01-13T11:03:00,axn,41.66
2024-01-13T11:04:00,axn,41.61
2024-01-13T11:05:00,axn,37.10
2024-01-13T11:06:00,axn,36.99
2024-01-13T11:07:00,axn,37.03
2024-01-13T11:08:00,axn,36.80
2024-01-13T11:09:00,axn,36.63
2024-01-13T11:10:00,axn,37.70
2024-01-13T11:11:00,axn,39.18
2024-01-13T11:12:00,axn,36.98
2024-01-13T11:13:00,axn,38.73
2024-01-13T11:14:00,axn,36.25
2024-01-13T11:15:00,axn,37.37
2024-01-13T11:16:00,axn,37.69
2024-01-13T11:17:00,axn,36.91
2024-01-13T11:18:00,axn,36.71
2024-01-13T11:19:00,axn,39.13
2024-01-13T11:20:00,axn,37.70
2024-01-13T11:21:00,axn,39.15
2024-01-13T11:22:00,axn,38.05
2024-01-13T11:23:00,axn,36.98
2024-01-13T11:24:00,axn,39.25
2024-01-13T11:25:00,axn,39.18
2024-01-13T11:26:00,axn,38.27
2024-01-13T11:27:00,axn,39.27
2024-01-13T11:28:00,axn,39.69
2024-01-13T11:29:00,axn,40.11
2024-01-13T11:30:00,axn,37.60
2024-01-13T11:31:00,axn,39.79
2024-01-13T11:32:00,axn,38.78
2024-01-13T11:33:00,axn,37.73
2024-01-13T11:34:00,axn,40.38
2024-01-13T11:35:00,axn,37.56
2024-01-13T11:36:00,axn,37.00
2024-01-13T11:37:00,axn,39.56
2024-01-13T11:38:00,axn,39.81
2024-01-13T11:39:00,axn,38.71
2024-01-13T11:40:00,axn,37.84
2024-01-13T11:41:00,axn,39.15
2024-01-13T11:42:00,axn,39.58
2024-01-13T11:43:00,axn,39.84
2024-01-13T11:44:00,axn,39.96
2024-01-13T11:45:00,axn,37.50
2024-01-13T11:46:00,axn,37.73
2024-01-13T11:47:00,axn,39.58
2024-01-13T11:48:00,axn,37.97
2024-01-13T11:49:00,axn,39.66
2024-01-13T11:50:00,axn,40.11
2024-01-13T11:51:00,axn,39.36
2024-01-13T11:52:00,axn,37.71
2024-01-13T11:53:00,axn,38.27
2024-01-13T11:54:00,axn,39.82
2024-01-13T11:55:00,axn,38.22
2024-01-13T11:56:00,axn,37.28
2024-01-13T11:57:00,axn,39.86
2024-01-13T11:58:00,axn,38.02
2024-01-13T11:59:00,axn,38.53
2024-01-13T12:00:00,axn,39.86
2024-01-13T12:01:00,axn,39.65
2024-01-13T12:02:00,axn,39.62
2024-01-13T12:03:00,axn,46.74
2024-01-13T12:04:00,axn,47.71
2024-01-13T12:05:00,axn,48.22
2024-01-13T12:06:00,axn,47.80
2024-01-13T12:07:00,axn,46.32
2024-01-13T12:08:00,axn,46.62
2024-01-13T12:09:00,axn,49.21
2024-01-13T12:10:00,axn,46.87
2024-01-13T12:11:00,axn,47.77
2024-01-13T12:12:00,axn,47.86
2024-01-13T12:13:00,axn,45.54
2024-01-13T12:14:00,axn,48.45
2024-01-13T12:15:00,axn,46.61
2024-01-13T12:16:00,axn,45.17
2024-01-13T12:17:00,axn,47.42
2024-01-13T12:18:00,axn,46.10
2024-01-13T12:19:00,axn,47.05
2024-01-13T12:20:00,axn,47.27
2024-01-13T12:21:00,axn,47.14
2024-01-13T12:22:00,axn,47.53
2024-01-13T12:23:00,axn,45.94
2024-01-13T12:24:00,axn,46.90
2024-01-13T12:25:00,axn,46.18
2024-01-13T12:26:00,axn,47.76
2024-01-13T12:27:00,axn,50.46
2024-01-13T12:28:00,axn,46.23
2024-01-13T12:29:00,axn,48.41
2024-01-13T12:30:00,axn,48.32
2024-01-13T12:31:00,axn,46.44
2024-01-13T12:32:00,axn,48.23
2024-01-13T12:33:00,axn,48.86
2024-01-13T12:34:00,axn,46.39
2024-01-13T12:35:00,axn,46.34
2024-01-13T12:36:00,axn,48.28
2024-01-13T12:37:00,axn,46.84
2024-01-13T12:38:00,axn,61.64
2024-01-13T12:39:00,axn,47.47
2024-01-13T12:40:00,axn,46.34
2024-01-13T12:41:00,axn,47.11
2024-01-13T12:42:00,axn,46.47
2024-01-13T12:43:00,axn,47.47
2024-01-13T12:44:00,axn,51.15
2024-01-13T12:45:00,axn,49.67
2024-01-13T12:46:00,axn,49.58
2024-01-13T12:47:00,axn,48.62
2024-01-13T12:48:00,axn,48.54
2024-01-13T12:49:00,axn,49.46
2024-01-13T12:50:00,axn,51.07
2024-01-13T12:51:00,axn,50.14
2024-01-13T12:52:00,axn,49.35
2024-01-13T12:53:00,axn,49.19
2024-01-13T12:54:00,axn,51.31
2024-01-13T12:55:00,axn,49.67
2024-01-13T12:56:00,axn,51.68
2024-01-13T12:57:00,axn,51.92
2024-01-13T12:58:00,axn,50.61
2024-01-13T12:59:00,axn,49.96
2024-01-13T13:00:00,axn,50.43
2024-01-13T13:01:00,axn,48.74
2024-01-13T13:02:00,axn,48.59
2024-01-13T13:03:00,axn,48.84
2024-01-13T13:04:00,axn,50.97
2024-01-13T13:05:00,axn,51.35
2024-01-13T13:06:00,axn,48.31
2024-01-13T13:07:00,axn,50.25
2024-01-13T13:08:00,axn,49.14
2024-01-13T13:09:00,axn,50.32
2024-01-13T13:10:00,axn,48.44
2024-01-13T13:11:00,axn,49.21
2024-01-13T13:12:00,axn,49.09
2024-01-13T13:13:00,axn,48.42
2024-01-13T13:14:00,axn,50.20
2024-01-13T13:15:00,axn,48.54
2024-01-13T13:16:00,axn,49.33
2024-01-13T13:17:00,axn,48.39
2024-01-13T13:18:00,axn,49.31